Hourly Data Report for July 06, 2021

BONAVISTA
NEWFOUNDLAND
Current Station Operator: ECCC - MSC

48°40'02.000" N
53°06'51.000" W
25.60 m
8400601
71178
AVA

Download Data

Hourly Data (July 2021)
Hourly Data Report for July 6, 2021
TIME
LST
Temp Definition
°C
Dew Point Definition
°C
Rel Hum Definition
%
Precip. Amount Definition
mm

Wind Dir Definition
10's deg

Wind Spd Definition
km/h
Visibility Definition
km
Stn Press Definition
kPa
Hmdx Definition


Wind Chill Definition


Weather Definition


00:30 11.2 9.6 90 0.0 21 16   100.24     LegendNANA
01:30 11.1 9.7 91 0.0 23 22   100.20     LegendNANA
02:30 10.9 9.8 93 0.0 23 24   100.20     LegendNANA
03:30 10.8 9.5 92 0.0 23 23   100.21     LegendNANA
04:30 10.6 9.3 92 0.0 23 22   100.19     LegendNANA
05:30 10.8 9.4 91 0.0 23 27   100.20     LegendNANA
06:30 11.3 9.7 90 0.0 24 28   100.23     LegendNANA
07:30 11.8 10.2 90 0.0 26 28   100.29     LegendNANA
08:30 11.7 10.1 90 0.0 25 26   100.30     LegendNANA
09:30 12.0 10.4 90 0.0 26 23   100.29     LegendNANA
10:30 13.7 10.8 82 0.0 26 20   100.30     LegendNANA
11:30 15.1 11.0 76 0.0 25 16   100.27     LegendNANA
12:30 17.1 11.4 69 0.0 23 9   100.20     LegendNANA
13:30 19.6 12.1 62 0.0 25 11   100.12     LegendNANA
14:30 19.2 13.2 68 0.0 24 27   100.07     LegendNANA
15:30 19.7 12.6 64 0.0 23 33   100.03     LegendNANA
16:30 21.0 12.6 59 0.0 25 41   100.01     LegendNANA
17:30 20.1 12.5 61 0.0 25 30   100.05     LegendNANA
18:30 21.0 10.8 52 0.0 24 29   100.08     LegendNANA
19:30 20.1 12.7 62 0.0 23 38   100.15     LegendNANA
20:30 18.3 12.6 69 0.0 23 35   100.21     LegendNANA
21:30 19.0 11.6 62 0.0 23 43   100.29     LegendNANA
22:30 18.8 10.0 57 0.0 22 39   100.31     LegendNANA
23:30 17.4 9.2 59 0.0 22 40   100.30     LegendNANA

Notes on Data Quality.

Legend

  • E = Estimated
  • M = Missing
  • NA = Not Available*
  • [empty] = Indicates an unobserved value
Date modified: